Pittsburgh Allegheny Co., PA

11:07 AM EDT on June 24, 2017 (GMT -0400)
Allegheny County

Weather History for KAGC - January, 2014

Change the Weather History Date:

Thursday, January 9, 2014

  Actual Average Record
Temperature  
Mean Temperature 28 °F -  
Max Temperature 34 °F 43 °F 62 °F (2008)
Min Temperature 21 °F 25 °F 5 °F (2017)
Degree Days  
Heating Degree Days 38    
Moisture  
Dew Point 21 °F    
Average Humidity 77    
Maximum Humidity 93    
Minimum Humidity 61    
Precipitation  
Precipitation 0.00 in - - ()
Sea Level Pressure  
Sea Level Pressure 30.49 in    
Wind  
Wind Speed 2 mph (ESE)    
Max Wind Speed 9 mph    
Max Gust Speed -    
Visibility 7 miles    
Events Snow    
Averages and records for this station are not official NWS values.
T = Trace of Precipitation, MM = Missing Value Source: NWS Daily Summary

Daily Weather History Graph

Daily Weather History Graph

Search for Another Location

Airport or City:

Trip Planner

Search our weather history database for the weather conditions in past years. The results will help you decide how hot, cold, wet, or windy it might be!

Date:

Astronomy

Jan. 09, 2014 Rise Set
Actual Time 7:42 AM EST 5:11 PM EST
Civil Twilight 7:12 AM EST 5:41 PM EST
Nautical Twilight 6:38 AM EST 6:15 PM EST
Astronomical Twilight 6:05 AM EST 6:48 PM EST
Moon 12:38 PM EST (1/9) 1:48 AM EST (1/9)
Length of Visible Light 10h 29m
Length of Day
9h 29m
Waxing Gibbous, 66% of the Moon is Illuminated
Jan 9
Waxing Gibbous
Jan 15
Full
Jan 24
Last Quarter
Jan 30
New
Feb 6
First Quarter

Hourly Weather History & Observations

Time (EST) Temp. Windchill Dew Point Humidity Pressure Visibility Wind Dir Wind Speed Gust Speed Precip Events Conditions
12:36 AM 23.0 °F 18.4 °F 19.4 °F 86% 30.42 in 2.5 mi NW 3.5 mph - 0.00 in Snow Light Snow
12:45 AM 23.0 °F - 19.4 °F 86% 30.43 in 2.5 mi Calm Calm - 0.00 in Snow Light Snow
12:53 AM 23.0 °F - 19.0 °F 85% 30.50 in 2.5 mi Calm Calm - 0.00 in Snow Light Snow
1:04 AM 23.0 °F 18.4 °F 19.4 °F 86% 30.43 in 4.0 mi NW 3.5 mph - 0.00 in Snow Light Snow
1:53 AM 23.0 °F 17.0 °F 19.0 °F 85% 30.52 in 8.0 mi NNW 4.6 mph - 0.00 in   Overcast
2:53 AM 23.0 °F 15.8 °F 18.0 °F 81% 30.54 in 10.0 mi NW 5.8 mph - N/A   Overcast
3:53 AM 23.0 °F 18.4 °F 18.0 °F 81% 30.54 in 6.0 mi NW 3.5 mph - 0.00 in Snow Light Snow
4:29 AM 23.0 °F - 19.4 °F 86% 30.47 in 2.0 mi Calm Calm - 0.00 in Snow Light Snow
4:53 AM 21.9 °F - 19.0 °F 89% 30.55 in 3.0 mi Calm Calm - 0.00 in Snow Light Snow
5:53 AM 21.9 °F - 19.0 °F 89% 30.56 in 7.0 mi Calm Calm - 0.00 in   Overcast
6:30 AM 23.0 °F - 19.4 °F 86% 30.49 in 9.0 mi Calm Calm - N/A   Overcast
6:53 AM 23.0 °F - 19.0 °F 85% 30.57 in 9.0 mi Calm Calm - N/A   Overcast
7:19 AM 21.2 °F - 19.4 °F 93% 30.50 in 5.0 mi Calm Calm - N/A   Mostly Cloudy
7:53 AM 21.9 °F - 18.0 °F 85% 30.58 in 6.0 mi Calm Calm - N/A   Overcast
8:53 AM 21.9 °F - 19.0 °F 89% 30.61 in 6.0 mi Calm Calm - N/A   Overcast
9:53 AM 23.0 °F - 18.0 °F 81% 30.62 in 9.0 mi Calm Calm - N/A   Overcast
10:09 AM 24.8 °F - 17.6 °F 74% 30.54 in 10.0 mi Calm Calm - N/A   Scattered Clouds
10:53 AM 26.1 °F 20.5 °F 19.0 °F 75% 30.59 in 10.0 mi NE 4.6 mph - N/A   Clear
11:53 AM 28.0 °F 22.8 °F 19.9 °F 72% 30.56 in 10.0 mi ESE 4.6 mph - N/A   Clear
12:53 PM 30.0 °F 26.5 °F 19.9 °F 66% 30.52 in 10.0 mi SE 3.5 mph - N/A   Clear
1:53 PM 33.1 °F 30.0 °F 21.9 °F 64% 30.50 in 10.0 mi Variable 3.5 mph - N/A   Clear
2:53 PM 34.0 °F 31.0 °F 21.9 °F 61% 30.47 in 10.0 mi ESE 3.5 mph - N/A   Clear
3:53 PM 34.0 °F - 21.9 °F 61% 30.48 in 10.0 mi Calm Calm - N/A   Clear
4:53 PM 34.0 °F - 23.0 °F 64% 30.48 in 10.0 mi Calm Calm - N/A   Overcast
6:53 PM 33.1 °F - 21.9 °F 64% 30.45 in 10.0 mi Calm Calm - N/A   Overcast
7:53 PM 33.1 °F 30.0 °F 21.9 °F 64% 30.45 in 10.0 mi NE 3.5 mph - N/A   Overcast
8:53 PM 33.1 °F 28.7 °F 21.9 °F 64% 30.43 in 10.0 mi East 4.6 mph - N/A   Overcast
9:53 PM 33.1 °F 28.7 °F 23.0 °F 66% 30.41 in 10.0 mi East 4.6 mph - N/A   Overcast
10:53 PM 33.1 °F 30.0 °F 24.1 °F 70% 30.41 in 10.0 mi WSW 3.5 mph - N/A   Overcast
11:35 PM 33.8 °F 27.7 °F 24.8 °F 70% 30.36 in 2.5 mi SSW 6.9 mph - 0.00 in Snow Light Snow
11:46 PM 33.8 °F 26.4 °F 26.6 °F 75% 30.35 in 3.0 mi SSW 9.2 mph - 0.00 in Snow Light Snow
11:53 PM 33.1 °F 26.9 °F 27.0 °F 78% 30.40 in 7.0 mi South 6.9 mph - 0.00 in Snow Light Snow